Location: DARK SKY Beskydy - Park tmavé oblohy, www.darkskybeskydy.cz
(49.4926°N, 18.5016°E)
Time: 10:48:44
(UTC+02:00)

Transit 4A - Pass Details

Date: 26 February 2024
Orbit: 871 x 971 km, 66.8° (Epoch: 24 April)

Event Time Altitude Azimuth Distance (km) Brightness Sun altitude
Exits shadow 03:26:31 24° 341° (NNW) 1,774 9.4 -31.0°
Drops below altitude 10° 03:30:37 10° 24° (NNE) 2,575 10.8 -30.3°
Sets 03:33:35 0° 38° (NE) 3,502 11.8 -29.9°
